Location: Newark
(48.9233°N, 29.3439°E)
Time: 02:19:57
(UTC+00:00)

Envisat - Pass Details

Date: 23 September 2019
Orbit: 764 x 766 km, 98.1° (Epoch: 15 October)

Event Time Altitude Azimuth Distance (km) Brightness Sun altitude
Rises 17:32:52 0° 213° (SSW) 3,222 6.4 -15.9°
Reaches altitude 10° 17:36:06 10° 235° (SW) 2,302 6.0 -16.4°
Maximum altitude 17:39:08 16° 272° (W) 1,933 6.1 -16.9°
Drops below altitude 10° 17:42:10 10° 309° (NW) 2,312 6.6 -17.4°
Sets 17:45:27 0° 332° (NNW) 3,244 7.0 -17.9°
